GEFSCGP_prec_meanprecacc_012.txt.gz
Total_Precipitation_Accumulation
0.00 0.00 0.00 0.00 0.00 0.00 0.00 0.00 0.00 0.00 0.00 0.00 0.00 0.01 0.02 0.03 0.03 0.03 0.03 0.02 0.01 0.01 0.03 0.05 0.11 0.15 0.10 0.11 0.09 0.08 0.06 0.06 0.07 0.06 0.03 0.02 0.02 0.02 0.03 0.03 0.02 0.01 0.01 0.01
0.00 0.00 0.00 0.00 0.00 0.00 0.00 0.00 0.00 0.00 0.00 0.00 0.00 0.00 0.01 0.02 0.02 0.01 0.01 0.01 0.04 0.11 0.22 0.49 0.74 0.61 0.26 0.10 0.04 0.02 0.03 0.03 0.03 0.02 0.01 0.01 0.01 0.00 0.00 0.00 0.00 0.00 0.00 0.00
0.00 0.00 0.00 0.00 0.00 0.00 0.00 0.00 0.00 0.00 0.00 0.00 0.00 0.00 0.00 0.01 0.01 0.00 0.01 0.04 0.16 0.32 0.61 1.11 1.15 0.72 0.34 0.13 0.06 0.02 0.01 0.01 0.01 0.01 0.00 0.00 0.00 0.00 0.00 0.00 0.02 0.02 0.00 0.00
0.00 0.00 0.00 0.00 0.00 0.00 0.00 0.00 0.00 0.00 0.00 0.00 0.00 0.00 0.00 0.00 0.00 0.02 0.03 0.08 0.16 0.31 0.56 0.82 0.81 0.47 0.27 0.18 0.16 0.07 0.01 0.01 0.00 0.00 0.00 0.00 0.00 0.00 0.00 0.01 0.02 0.01 0.00 0.00
0.00 0.00 0.00 0.00 0.00 0.00 0.00 0.00 0.00 0.00 0.00 0.00 0.00 0.00 0.00 0.00 0.00 0.02 0.04 0.06 0.13 0.32 0.42 0.38 0.33 0.26 0.23 0.22 0.22 0.15 0.07 0.08 0.05 0.03 0.03 0.02 0.01 0.00 0.00 0.00 0.00 0.00 0.00 0.00
0.00 0.00 0.00 0.00 0.00 0.01 0.00 0.00 0.00 0.00 0.01 0.05 0.04 0.02 0.01 0.00 0.00 0.01 0.02 0.07 0.19 0.36 0.40 0.33 0.24 0.19 0.18 0.17 0.15 0.12 0.14 0.22 0.17 0.12 0.08 0.09 0.07 0.04 0.02 0.01 0.01 0.00 0.00 0.00
0.01 0.00 0.00 0.00 0.00 0.01 0.01 0.01 0.00 0.01 0.08 0.12 0.06 0.03 0.04 0.00 0.00 0.00 0.01 0.06 0.19 0.35 0.44 0.41 0.30 0.21 0.16 0.14 0.10 0.06 0.07 0.13 0.14 0.10 0.09 0.12 0.14 0.11 0.07 0.04 0.02 0.02 0.00 0.00
0.03 0.01 0.00 0.00 0.00 0.00 0.00 0.00 0.00 0.00 0.00 0.01 0.01 0.02 0.04 0.03 0.01 0.00 0.01 0.04 0.14 0.21 0.24 0.24 0.18 0.13 0.08 0.06 0.04 0.03 0.02 0.03 0.04 0.05 0.07 0.10 0.13 0.08 0.07 0.12 0.08 0.04 0.02 0.00
0.00 0.00 0.00 0.00 0.00 0.00 0.00 0.00 0.00 0.00 0.00 0.00 0.01 0.05 0.12 0.16 0.11 0.04 0.02 0.02 0.05 0.07 0.08 0.10 0.10 0.07 0.06 0.04 0.03 0.03 0.02 0.01 0.01 0.02 0.05 0.08 0.13 0.13 0.11 0.12 0.11 0.08 0.07 0.03
0.00 0.00 0.00 0.00 0.00 0.00 0.00 0.00 0.00 0.00 0.00 0.00 0.00 0.07 0.20 0.28 0.20 0.06 0.03 0.03 0.05 0.07 0.07 0.07 0.06 0.06 0.05 0.04 0.04 0.04 0.03 0.02 0.02 0.02 0.02 0.05 0.11 0.15 0.14 0.13 0.14 0.14 0.12 0.08
0.00 0.00 0.00 0.00 0.00 0.00 0.00 0.00 0.00 0.00 0.00 0.00 0.00 0.06 0.09 0.09 0.05 0.02 0.01 0.02 0.03 0.04 0.05 0.04 0.04 0.04 0.03 0.03 0.03 0.03 0.03 0.03 0.02 0.02 0.02 0.02 0.05 0.09 0.14 0.17 0.18 0.18 0.16 0.14
0.00 0.00 0.00 0.00 0.01 0.00 0.00 0.00 0.00 0.00 0.00 0.00 0.01 0.07 0.05 0.05 0.05 0.03 0.01 0.00 0.00 0.01 0.01 0.01 0.02 0.02 0.02 0.03 0.03 0.03 0.03 0.03 0.03 0.02 0.02 0.01 0.01 0.03 0.06 0.10 0.14 0.16 0.15 0.14
0.00 0.00 0.00 0.00 0.01 0.01 0.00 0.00 0.00 0.00 0.00 0.00 0.07 0.15 0.08 0.04 0.03 0.02 0.00 0.00 0.00 0.00 0.00 0.01 0.01 0.02 0.03 0.03 0.03 0.02 0.02 0.01 0.01 0.01 0.01 0.00 0.00 0.00 0.01 0.04 0.07 0.10 0.12 0.13
0.00 0.00 0.00 0.00 0.00 0.00 0.00 0.00 0.00 0.00 0.00 0.00 0.04 0.14 0.06 0.01 0.01 0.00 0.00 0.00 0.00 0.00 0.00 0.00 0.01 0.01 0.01 0.01 0.01 0.00 0.00 0.00 0.00 0.00 0.01 0.01 0.01 0.01 0.01 0.01 0.03 0.05 0.08 0.11
0.00 0.00 0.00 0.00 0.00 0.00 0.00 0.00 0.00 0.00 0.00 0.02 0.03 0.07 0.03 0.01 0.01 0.00 0.00 0.00 0.00 0.00 0.01 0.01 0.01 0.01 0.01 0.02 0.02 0.02 0.03 0.03 0.03 0.04 0.04 0.05 0.04 0.04 0.04 0.04 0.03 0.04 0.06 0.09
0.00 0.00 0.00 0.00 0.00 0.00 0.00 0.00 0.00 0.00 0.00 0.00 0.00 0.01 0.00 0.00 0.01 0.01 0.02 0.03 0.04 0.04 0.04 0.04 0.04 0.03 0.02 0.02 0.02 0.02 0.02 0.02 0.03 0.04 0.04 0.03 0.03 0.03 0.03 0.03 0.03 0.03 0.05 0.09
0.00 0.00 0.00 0.00 0.00 0.01 0.05 0.01 0.00 0.00 0.00 0.00 0.00 0.00 0.00 0.01 0.01 0.02 0.05 0.06 0.05 0.03 0.02 0.01 0.01 0.00 0.00 0.00 0.00 0.00 0.00 0.00 0.00 0.01 0.01 0.01 0.01 0.02 0.02 0.03 0.02 0.02 0.04 0.07
0.00 0.00 0.00 0.00 0.00 0.03 0.06 0.00 0.00 0.00 0.00 0.00 0.00 0.00 0.00 0.00 0.01 0.01 0.01 0.01 0.00 0.00 0.00 0.00 0.00 0.00 0.00 0.00 0.00 0.00 0.00 0.00 0.00 0.00 0.00 0.00 0.00 0.01 0.02 0.03 0.05 0.05 0.05 0.07
0.00 0.00 0.00 0.00 0.00 0.02 0.01 0.00 0.00 0.00 0.00 0.00 0.00 0.00 0.00 0.00 0.00 0.00 0.00 0.00 0.00 0.00 0.00 0.00 0.00 0.00 0.00 0.00 0.00 0.00 0.00 0.00 0.00 0.00 0.00 0.00 0.00 0.01 0.01 0.02 0.05 0.09 0.10 0.10
0.00 0.00 0.00 0.00 0.00 0.01 0.01 0.00 0.00 0.00 0.02 0.00 0.00 0.00 0.00 0.00 0.00 0.00 0.00 0.00 0.00 0.00 0.00 0.00 0.00 0.00 0.00 0.00 0.00 0.00 0.00 0.00 0.01 0.01 0.01 0.01 0.01 0.02 0.02 0.02 0.04 0.08 0.12 0.14
0.00 0.00 0.00 0.00 0.00 0.00 0.00 0.00 0.00 0.00 0.00 0.00 0.00 0.00 0.00 0.00 0.00 0.00 0.00 0.00 0.00 0.00 0.00 0.00 0.00 0.00 0.00 0.00 0.00 0.01 0.02 0.02 0.02 0.02 0.02 0.02 0.02 0.03 0.03 0.04 0.05 0.07 0.09 0.14
0.00 0.00 0.00 0.00 0.00 0.00 0.00 0.00 0.00 0.00 0.00 0.00 0.00 0.00 0.00 0.00 0.00 0.00 0.00 0.00 0.00 0.00 0.00 0.00 0.00 0.00 0.00 0.00 0.02 0.03 0.04 0.03 0.03 0.03 0.03 0.03 0.04 0.03 0.02 0.05 0.07 0.08 0.10 0.14
0.00 0.00 0.00 0.00 0.00 0.00 0.00 0.00 0.00 0.00 0.00 0.00 0.00 0.00 0.00 0.00 0.00 0.00 0.00 0.00 0.00 0.00 0.00 0.00 0.00 0.00 0.00 0.01 0.04 0.04 0.03 0.03 0.04 0.05 0.05 0.05 0.05 0.06 0.06 0.07 0.07 0.07 0.09 0.11
0.00 0.00 0.00 0.00 0.00 0.00 0.00 0.00 0.00 0.00 0.00 0.00 0.00 0.00 0.00 0.00 0.00 0.00 0.00 0.00 0.00 0.00 0.00 0.00 0.00 0.01 0.02 0.03 0.04 0.04 0.04 0.05 0.07 0.07 0.08 0.08 0.08 0.07 0.07 0.09 0.08 0.07 0.07 0.09
0.00 0.00 0.00 0.00 0.00 0.00 0.00 0.00 0.00 0.00 0.00 0.00 0.00 0.00 0.00 0.00 0.00 0.00 0.00 0.00 0.00 0.00 0.00 0.01 0.02 0.04 0.05 0.04 0.04 0.04 0.06 0.10 0.12 0.11 0.11 0.10 0.10 0.09 0.09 0.09 0.09 0.08 0.08 0.09
0.00 0.00 0.00 0.00 0.00 0.00 0.00 0.00 0.00 0.00 0.00 0.00 0.00 0.00 0.00 0.00 0.00 0.00 0.00 0.00 0.00 0.00 0.02 0.04 0.07 0.09 0.08 0.08 0.07 0.07 0.11 0.16 0.18 0.17 0.14 0.14 0.13 0.12 0.10 0.10 0.09 0.07 0.06 0.05

GEFSCGP_prec_meanprecacc_018.txt.gz
Total_Precipitation_Accumulation
0.00 0.00 0.00 0.00 0.00 0.00 0.00 0.00 0.00 0.00 0.00 0.00 0.00 0.01 0.02 0.03 0.04 0.04 0.04 0.03 0.04 0.11 0.24 0.47 0.91 1.60 2.43 3.14 3.22 2.60 1.99 1.57 1.17 0.81 0.41 0.17 0.09 0.05 0.05 0.04 0.02 0.01 0.01 0.01
0.00 0.01 0.00 0.00 0.00 0.00 0.00 0.00 0.00 0.00 0.00 0.00 0.00 0.00 0.01 0.02 0.02 0.01 0.02 0.04 0.11 0.28 0.57 1.09 1.92 2.47 2.50 2.42 2.00 1.52 1.23 1.04 0.76 0.47 0.22 0.12 0.06 0.03 0.01 0.01 0.00 0.00 0.00 0.00
0.00 0.01 0.00 0.00 0.00 0.00 0.00 0.00 0.00 0.00 0.00 0.00 0.00 0.00 0.01 0.01 0.01 0.01 0.04 0.10 0.31 0.65 1.10 1.75 2.18 2.08 1.55 1.07 0.87 0.78 0.70 0.46 0.29 0.22 0.11 0.05 0.03 0.02 0.02 0.01 0.02 0.02 0.00 0.00
0.00 0.01 0.00 0.00 0.00 0.00 0.00 0.00 0.00 0.00 0.00 0.00 0.00 0.01 0.02 0.03 0.04 0.06 0.09 0.16 0.32 0.56 0.80 1.10 1.23 0.98 0.82 0.71 0.62 0.63 0.54 0.30 0.21 0.15 0.08 0.07 0.06 0.05 0.04 0.03 0.03 0.02 0.01 0.00
0.01 0.01 0.00 0.00 0.00 0.00 0.00 0.00 0.00 0.00 0.00 0.00 0.00 0.01 0.04 0.07 0.10 0.12 0.15 0.17 0.22 0.38 0.46 0.44 0.44 0.39 0.38 0.40 0.43 0.49 0.48 0.39 0.30 0.23 0.16 0.14 0.11 0.09 0.08 0.06 0.05 0.03 0.02 0.01
0.01 0.01 0.00 0.00 0.00 0.01 0.00 0.00 0.00 0.00 0.02 0.07 0.06 0.05 0.10 0.22 0.35 0.36 0.26 0.20 0.24 0.38 0.41 0.34 0.26 0.22 0.23 0.25 0.26 0.32 0.42 0.50 0.47 0.41 0.32 0.26 0.19 0.15 0.12 0.09 0.08 0.05 0.02 0.01
0.04 0.02 0.01 0.00 0.00 0.01 0.01 0.01 0.00 0.01 0.09 0.15 0.09 0.06 0.16 0.34 0.44 0.30 0.14 0.10 0.20 0.35 0.45 0.42 0.30 0.22 0.18 0.16 0.15 0.13 0.14 0.23 0.28 0.28 0.29 0.30 0.28 0.23 0.17 0.13 0.09 0.08 0.05 0.04
0.06 0.05 0.01 0.01 0.01 0.01 0.01 0.00 0.00 0.00 0.01 0.01 0.03 0.10 0.32 0.49 0.34 0.14 0.04 0.05 0.15 0.22 0.25 0.25 0.19 0.13 0.08 0.06 0.05 0.04 0.03 0.05 0.07 0.09 0.13 0.17 0.21 0.17 0.15 0.20 0.15 0.15 0.17 0.17
0.00 0.00 0.01 0.01 0.02 0.02 0.01 0.00 0.00 0.00 0.00 0.01 0.05 0.19 0.33 0.42 0.30 0.12 0.05 0.03 0.05 0.08 0.08 0.10 0.10 0.07 0.06 0.04 0.03 0.03 0.02 0.01 0.02 0.03 0.05 0.09 0.14 0.15 0.14 0.16 0.16 0.16 0.21 0.22
0.00 0.00 0.00 0.01 0.01 0.02 0.01 0.01 0.01 0.01 0.01 0.01 0.03 0.20 0.38 0.42 0.32 0.13 0.07 0.06 0.06 0.07 0.07 0.07 0.06 0.06 0.05 0.04 0.04 0.04 0.03 0.02 0.02 0.02 0.03 0.05 0.11 0.15 0.15 0.14 0.17 0.18 0.18 0.18
0.00 0.00 0.00 0.00 0.01 0.02 0.02 0.01 0.01 0.01 0.01 0.02 0.04 0.14 0.20 0.19 0.13 0.08 0.05 0.03 0.04 0.04 0.05 0.04 0.04 0.04 0.03 0.03 0.03 0.03 0.03 0.03 0.02 0.02 0.02 0.02 0.05 0.09 0.14 0.17 0.18 0.19 0.18 0.16
0.00 0.00 0.00 0.00 0.02 0.02 0.02 0.02 0.02 0.02 0.02 0.02 0.05 0.14 0.10 0.10 0.09 0.05 0.02 0.00 0.00 0.01 0.01 0.01 0.02 0.02 0.02 0.03 0.03 0.03 0.04 0.03 0.03 0.02 0.02 0.01 0.01 0.03 0.06 0.10 0.14 0.16 0.15 0.14
0.00 0.00 0.00 0.01 0.02 0.03 0.02 0.02 0.02 0.03 0.04 0.03 0.10 0.19 0.10 0.05 0.04 0.02 0.01 0.00 0.00 0.00 0.00 0.01 0.01 0.02 0.03 0.03 0.03 0.02 0.02 0.02 0.01 0.01 0.01 0.00 0.00 0.00 0.01 0.04 0.07 0.10 0.12 0.13
0.00 0.00 0.00 0.00 0.00 0.01 0.02 0.03 0.05 0.04 0.02 0.01 0.05 0.16 0.07 0.02 0.01 0.00 0.00 0.00 0.00 0.00 0.00 0.00 0.01 0.01 0.01 0.01 0.01 0.00 0.00 0.00 0.00 0.01 0.01 0.01 0.01 0.01 0.01 0.01 0.03 0.05 0.08 0.11
0.00 0.00 0.00 0.00 0.00 0.01 0.02 0.05 0.04 0.02 0.01 0.03 0.04 0.07 0.03 0.01 0.01 0.00 0.00 0.00 0.00 0.00 0.01 0.01 0.01 0.01 0.01 0.02 0.02 0.02 0.03 0.03 0.03 0.04 0.05 0.05 0.05 0.05 0.04 0.04 0.03 0.04 0.06 0.09
0.00 0.00 0.00 0.00 0.00 0.01 0.02 0.05 0.03 0.01 0.00 0.00 0.00 0.01 0.00 0.00 0.01 0.01 0.02 0.03 0.04 0.04 0.04 0.04 0.04 0.03 0.02 0.02 0.02 0.02 0.02 0.02 0.03 0.04 0.04 0.04 0.04 0.04 0.04 0.03 0.03 0.04 0.05 0.09
0.00 0.00 0.00 0.00 0.00 0.01 0.06 0.04 0.01 0.00 0.00 0.00 0.00 0.00 0.00 0.01 0.01 0.02 0.05 0.06 0.05 0.03 0.02 0.01 0.01 0.00 0.00 0.00 0.00 0.00 0.00 0.00 0.00 0.01 0.01 0.01 0.01 0.02 0.03 0.03 0.03 0.03 0.05 0.08
0.00 0.00 0.00 0.00 0.00 0.04 0.07 0.01 0.00 0.00 0.00 0.00 0.00 0.00 0.00 0.00 0.01 0.01 0.01 0.01 0.00 0.00 0.00 0.00 0.00 0.00 0.00 0.00 0.00 0.00 0.00 0.00 0.00 0.00 0.00 0.00 0.01 0.01 0.02 0.04 0.05 0.06 0.06 0.08
0.00 0.00 0.00 0.00 0.00 0.02 0.02 0.00 0.00 0.00 0.00 0.00 0.00 0.00 0.00 0.00 0.00 0.00 0.00 0.00 0.00 0.00 0.00 0.00 0.00 0.00 0.00 0.00 0.00 0.00 0.00 0.00 0.00 0.01 0.01 0.01 0.01 0.01 0.01 0.02 0.06 0.09 0.11 0.10
0.00 0.00 0.00 0.00 0.00 0.02 0.02 0.00 0.00 0.00 0.02 0.00 0.00 0.00 0.00 0.00 0.00 0.00 0.00 0.00 0.00 0.00 0.00 0.00 0.00 0.00 0.00 0.00 0.00 0.01 0.01 0.02 0.02 0.03 0.03 0.03 0.03 0.04 0.03 0.03 0.05 0.08 0.12 0.14
0.00 0.00 0.00 0.00 0.00 0.00 0.00 0.00 0.00 0.00 0.00 0.00 0.00 0.00 0.00 0.00 0.00 0.00 0.00 0.00 0.00 0.00 0.00 0.00 0.00 0.00 0.00 0.00 0.01 0.03 0.05 0.06 0.06 0.07 0.07 0.06 0.06 0.06 0.05 0.05 0.06 0.07 0.10 0.15
0.00 0.00 0.00 0.00 0.00 0.00 0.00 0.00 0.00 0.00 0.00 0.00 0.00 0.00 0.00 0.00 0.00 0.00 0.00 0.00 0.00 0.00 0.00 0.00 0.00 0.00 0.00 0.01 0.04 0.08 0.09 0.08 0.09 0.09 0.09 0.08 0.07 0.06 0.04 0.07 0.08 0.09 0.11 0.15
0.00 0.00 0.00 0.00 0.00 0.00 0.00 0.00 0.00 0.00 0.00 0.00 0.00 0.00 0.00 0.00 0.00 0.00 0.00 0.00 0.00 0.00 0.00 0.00 0.00 0.01 0.02 0.03 0.07 0.11 0.10 0.10 0.11 0.11 0.11 0.09 0.09 0.09 0.10 0.10 0.09 0.08 0.10 0.12
0.00 0.00 0.00 0.00 0.00 0.00 0.00 0.00 0.00 0.00 0.00 0.00 0.00 0.00 0.00 0.00 0.00 0.00 0.00 0.00 0.00 0.00 0.00 0.00 0.01 0.03 0.05 0.06 0.07 0.09 0.10 0.12 0.15 0.15 0.14 0.13 0.13 0.12 0.12 0.14 0.12 0.10 0.08 0.11
0.00 0.00 0.00 0.00 0.00 0.00 0.00 0.00 0.00 0.00 0.00 0.00 0.00 0.00 0.00 0.00 0.00 0.00 0.00 0.00 0.00 0.00 0.01 0.02 0.05 0.08 0.09 0.08 0.07 0.08 0.11 0.17 0.20 0.19 0.17 0.17 0.18 0.16 0.15 0.15 0.14 0.11 0.10 0.11
0.00 0.00 0.00 0.00 0.00 0.00 0.00 0.00 0.00 0.00 0.00 0.00 0.00 0.00 0.00 0.00 0.00 0.00 0.00 0.00 0.00 0.01 0.04 0.08 0.11 0.13 0.13 0.11 0.10 0.11 0.15 0.22 0.26 0.25 0.21 0.21 0.20 0.19 0.17 0.15 0.13 0.09 0.08 0.06

GEFSCGP_prec_meanprecacc_024.txt.gz
Total_Precipitation_Accumulation
0.00 0.00 0.00 0.00 0.00 0.00 0.00 0.00 0.00 0.00 0.00 0.00 0.00 0.01 0.02 0.04 0.04 0.05 0.07 0.09 0.12 0.21 0.34 0.56 0.99 1.66 2.47 3.19 3.34 2.93 2.49 2.21 1.94 1.63 1.14 0.80 0.62 0.51 0.39 0.28 0.21 0.15 0.10 0.07
0.00 0.01 0.00 0.00 0.00 0.00 0.00 0.00 0.00 0.00 0.00 0.00 0.00 0.01 0.01 0.02 0.03 0.03 0.04 0.07 0.16 0.33 0.62 1.14 1.96 2.48 2.51 2.42 2.06 1.67 1.48 1.35 1.08 0.80 0.55 0.43 0.36 0.29 0.22 0.17 0.15 0.12 0.08 0.06
0.00 0.01 0.00 0.00 0.00 0.00 0.00 0.00 0.00 0.00 0.00 0.00 0.00 0.00 0.01 0.01 0.01 0.02 0.05 0.12 0.34 0.68 1.13 1.77 2.19 2.09 1.55 1.07 0.88 0.80 0.74 0.54 0.39 0.34 0.30 0.25 0.21 0.19 0.16 0.14 0.15 0.12 0.07 0.05
0.00 0.01 0.00 0.00 0.00 0.00 0.00 0.00 0.00 0.00 0.00 0.00 0.00 0.01 0.03 0.03 0.04 0.07 0.10 0.18 0.35 0.58 0.82 1.11 1.24 0.99 0.82 0.71 0.63 0.65 0.57 0.34 0.27 0.22 0.18 0.16 0.15 0.16 0.16 0.14 0.14 0.13 0.10 0.07
0.01 0.01 0.00 0.00 0.00 0.00 0.00 0.00 0.00 0.00 0.00 0.00 0.01 0.02 0.05 0.07 0.11 0.13 0.16 0.18 0.24 0.41 0.48 0.45 0.44 0.40 0.39 0.40 0.43 0.51 0.49 0.42 0.34 0.28 0.22 0.20 0.17 0.17 0.17 0.17 0.17 0.17 0.16 0.13
0.01 0.01 0.00 0.00 0.00 0.01 0.01 0.00 0.00 0.00 0.02 0.07 0.07 0.05 0.11 0.23 0.36 0.37 0.28 0.21 0.26 0.39 0.42 0.34 0.26 0.22 0.24 0.25 0.27 0.33 0.43 0.52 0.49 0.43 0.34 0.29 0.23 0.20 0.19 0.18 0.18 0.18 0.16 0.15
0.04 0.03 0.01 0.01 0.01 0.02 0.02 0.01 0.00 0.01 0.09 0.15 0.10 0.07 0.17 0.35 0.45 0.31 0.15 0.10 0.20 0.36 0.45 0.42 0.30 0.22 0.18 0.17 0.15 0.13 0.14 0.24 0.28 0.28 0.30 0.31 0.29 0.25 0.20 0.17 0.14 0.16 0.15 0.16
0.07 0.05 0.02 0.01 0.02 0.03 0.02 0.01 0.00 0.01 0.02 0.02 0.04 0.12 0.33 0.50 0.34 0.14 0.05 0.05 0.15 0.22 0.25 0.25 0.19 0.13 0.08 0.06 0.05 0.04 0.03 0.05 0.07 0.09 0.13 0.17 0.21 0.17 0.15 0.20 0.16 0.17 0.21 0.22
0.01 0.01 0.01 0.01 0.03 0.03 0.02 0.01 0.01 0.02 0.02 0.02 0.08 0.22 0.35 0.43 0.30 0.13 0.06 0.04 0.05 0.08 0.09 0.10 0.10 0.08 0.06 0.04 0.03 0.03 0.02 0.01 0.02 0.03 0.05 0.09 0.14 0.15 0.14 0.16 0.16 0.16 0.22 0.23
0.00 0.00 0.00 0.01 0.02 0.02 0.02 0.01 0.01 0.02 0.02 0.03 0.06 0.25 0.41 0.43 0.32 0.13 0.08 0.06 0.06 0.08 0.07 0.07 0.06 0.06 0.05 0.04 0.04 0.04 0.03 0.02 0.02 0.02 0.03 0.05 0.11 0.15 0.15 0.14 0.17 0.18 0.18 0.18
0.00 0.00 0.00 0.00 0.01 0.03 0.02 0.02 0.02 0.02 0.03 0.04 0.05 0.16 0.22 0.19 0.13 0.09 0.05 0.03 0.04 0.04 0.05 0.04 0.04 0.04 0.04 0.03 0.03 0.03 0.03 0.03 0.02 0.02 0.02 0.02 0.05 0.09 0.14 0.17 0.18 0.19 0.18 0.16
0.00 0.00 0.00 0.00 0.02 0.03 0.02 0.02 0.02 0.03 0.03 0.03 0.05 0.14 0.10 0.10 0.09 0.06 0.02 0.01 0.01 0.01 0.01 0.01 0.02 0.02 0.02 0.03 0.03 0.04 0.04 0.03 0.03 0.02 0.02 0.01 0.01 0.03 0.06 0.10 0.14 0.16 0.15 0.14
0.00 0.00 0.00 0.01 0.02 0.03 0.02 0.02 0.03 0.03 0.04 0.03 0.10 0.19 0.10 0.05 0.04 0.02 0.01 0.00 0.00 0.00 0.00 0.01 0.01 0.02 0.03 0.03 0.03 0.02 0.02 0.02 0.01 0.01 0.01 0.00 0.00 0.00 0.01 0.04 0.07 0.10 0.12 0.13
0.00 0.00 0.00 0.00 0.00 0.01 0.02 0.04 0.05 0.05 0.02 0.01 0.05 0.16 0.07 0.02 0.01 0.00 0.00 0.00 0.00 0.00 0.00 0.00 0.01 0.01 0.01 0.01 0.01 0.00 0.00 0.00 0.00 0.01 0.01 0.01 0.01 0.01 0.01 0.01 0.03 0.05 0.08 0.11
0.00 0.00 0.00 0.00 0.00 0.01 0.02 0.05 0.04 0.02 0.01 0.03 0.04 0.07 0.03 0.01 0.01 0.00 0.00 0.00 0.00 0.00 0.01 0.01 0.01 0.01 0.01 0.02 0.02 0.02 0.03 0.03 0.03 0.04 0.05 0.05 0.05 0.05 0.04 0.04 0.03 0.04 0.06 0.09
0.00 0.00 0.00 0.00 0.00 0.01 0.02 0.05 0.03 0.01 0.00 0.00 0.00 0.01 0.00 0.00 0.01 0.01 0.02 0.03 0.04 0.04 0.04 0.04 0.04 0.03 0.02 0.02 0.02 0.02 0.02 0.02 0.03 0.04 0.04 0.04 0.04 0.04 0.04 0.04 0.03 0.04 0.06 0.09
0.00 0.00 0.00 0.00 0.00 0.01 0.06 0.04 0.01 0.00 0.00 0.00 0.00 0.00 0.00 0.01 0.01 0.02 0.05 0.06 0.05 0.03 0.02 0.01 0.01 0.00 0.00 0.00 0.00 0.00 0.00 0.00 0.01 0.01 0.01 0.02 0.02 0.03 0.04 0.04 0.04 0.04 0.06 0.09
0.00 0.00 0.00 0.00 0.00 0.04 0.07 0.01 0.00 0.00 0.00 0.00 0.00 0.00 0.00 0.00 0.01 0.01 0.01 0.01 0.00 0.00 0.00 0.00 0.00 0.00 0.00 0.00 0.00 0.00 0.00 0.00 0.00 0.01 0.01 0.02 0.03 0.04 0.05 0.08 0.09 0.08 0.09 0.10
0.00 0.00 0.00 0.00 0.00 0.02 0.02 0.00 0.00 0.00 0.00 0.00 0.00 0.00 0.00 0.00 0.00 0.00 0.00 0.00 0.00 0.00 0.00 0.00 0.00 0.00 0.00 0.00 0.00 0.00 0.00 0.00 0.01 0.01 0.02 0.03 0.04 0.06 0.08 0.09 0.12 0.15 0.16 0.15
0.00 0.00 0.00 0.00 0.00 0.02 0.02 0.00 0.00 0.00 0.02 0.00 0.00 0.00 0.00 0.00 0.00 0.00 0.00 0.00 0.00 0.00 0.00 0.00 0.00 0.00 0.00 0.00 0.00 0.01 0.01 0.02 0.03 0.04 0.05 0.06 0.08 0.11 0.13 0.14 0.16 0.18 0.21 0.21
0.00 0.00 0.00 0.00 0.00 0.00 0.00 0.00 0.00 0.00 0.00 0.00 0.00 0.00 0.00 0.00 0.00 0.00 0.00 0.00 0.00 0.00 0.00 0.00 0.00 0.00 0.00 0.00 0.02 0.04 0.05 0.07 0.07 0.08 0.08 0.09 0.11 0.14 0.16 0.19 0.21 0.22 0.22 0.23
0.00 0.00 0.00 0.00 0.00 0.00 0.00 0.00 0.00 0.00 0.00 0.00 0.00 0.00 0.00 0.00 0.00 0.00 0.00 0.00 0.00 0.00 0.00 0.00 0.00 0.00 0.00 0.01 0.05 0.08 0.10 0.09 0.10 0.10 0.10 0.10 0.11 0.11 0.13 0.17 0.21 0.23 0.27 0.29
0.00 0.00 0.00 0.00 0.00 0.00 0.00 0.00 0.00 0.00 0.00 0.00 0.00 0.00 0.00 0.00 0.00 0.00 0.00 0.00 0.00 0.00 0.00 0.00 0.00 0.01 0.02 0.03 0.08 0.12 0.11 0.10 0.12 0.13 0.12 0.12 0.13 0.14 0.16 0.18 0.18 0.20 0.22 0.23
0.00 0.00 0.00 0.00 0.00 0.00 0.00 0.00 0.00 0.00 0.00 0.00 0.00 0.00 0.00 0.00 0.00 0.00 0.00 0.00 0.00 0.00 0.00 0.00 0.01 0.04 0.05 0.06 0.08 0.09 0.11 0.13 0.16 0.17 0.16 0.16 0.18 0.18 0.19 0.22 0.22 0.21 0.20 0.20
0.00 0.00 0.00 0.00 0.00 0.00 0.00 0.00 0.00 0.00 0.00 0.00 0.00 0.00 0.00 0.00 0.00 0.00 0.00 0.00 0.00 0.00 0.01 0.02 0.05 0.09 0.10 0.08 0.08 0.08 0.12 0.18 0.22 0.21 0.20 0.21 0.22 0.22 0.21 0.22 0.22 0.21 0.22 0.21
0.00 0.00 0.00 0.00 0.00 0.00 0.00 0.00 0.00 0.00 0.00 0.00 0.00 0.00 0.00 0.00 0.00 0.00 0.00 0.00 0.00 0.01 0.04 0.08 0.12 0.14 0.14 0.12 0.11 0.11 0.16 0.24 0.28 0.27 0.24 0.24 0.23 0.22 0.22 0.21 0.19 0.16 0.15 0.13

GEFSCGP_prec_meanprecacc_030.txt.gz
Total_Precipitation_Accumulation
0.00 0.00 0.00 0.00 0.00 0.00 0.00 0.00 0.00 0.00 0.00 0.00 0.00 0.01 0.02 0.04 0.05 0.05 0.08 0.09 0.13 0.22 0.35 0.57 1.00 1.67 2.48 3.19 3.35 2.93 2.49 2.21 1.95 1.63 1.15 0.84 0.72 0.69 0.63 0.53 0.46 0.39 0.33 0.29
0.00 0.01 0.00 0.00 0.00 0.00 0.00 0.00 0.00 0.00 0.00 0.00 0.00 0.01 0.02 0.03 0.03 0.03 0.05 0.08 0.16 0.33 0.62 1.15 1.96 2.48 2.51 2.43 2.06 1.67 1.48 1.36 1.09 0.80 0.56 0.45 0.40 0.37 0.33 0.31 0.31 0.29 0.25 0.23
0.00 0.01 0.00 0.00 0.00 0.00 0.00 0.01 0.00 0.00 0.00 0.00 0.01 0.01 0.01 0.01 0.02 0.02 0.05 0.12 0.34 0.68 1.13 1.78 2.19 2.09 1.55 1.07 0.88 0.80 0.74 0.54 0.39 0.35 0.31 0.27 0.24 0.24 0.22 0.21 0.22 0.22 0.18 0.17
0.00 0.01 0.00 0.00 0.00 0.00 0.00 0.00 0.00 0.00 0.00 0.01 0.01 0.05 0.05 0.04 0.05 0.07 0.10 0.18 0.35 0.58 0.82 1.11 1.24 0.99 0.82 0.71 0.63 0.65 0.57 0.34 0.27 0.23 0.19 0.18 0.17 0.19 0.19 0.18 0.19 0.18 0.16 0.16
0.01 0.01 0.00 0.00 0.00 0.00 0.00 0.00 0.00 0.00 0.00 0.01 0.02 0.06 0.09 0.08 0.12 0.13 0.16 0.18 0.24 0.41 0.48 0.45 0.44 0.40 0.39 0.40 0.43 0.51 0.50 0.42 0.34 0.28 0.22 0.20 0.18 0.17 0.18 0.19 0.19 0.20 0.20 0.18
0.01 0.01 0.00 0.00 0.00 0.01 0.01 0.01 0.01 0.01 0.03 0.09 0.08 0.09 0.18 0.26 0.37 0.37 0.28 0.21 0.26 0.39 0.42 0.34 0.26 0.22 0.24 0.25 0.27 0.33 0.43 0.52 0.49 0.43 0.34 0.29 0.23 0.20 0.19 0.18 0.19 0.18 0.18 0.18
0.04 0.03 0.01 0.01 0.01 0.02 0.03 0.01 0.01 0.02 0.10 0.17 0.11 0.12 0.23 0.36 0.45 0.31 0.15 0.11 0.21 0.36 0.45 0.42 0.31 0.23 0.18 0.17 0.15 0.13 0.15 0.24 0.28 0.28 0.30 0.31 0.29 0.25 0.20 0.17 0.15 0.16 0.15 0.16
0.07 0.05 0.02 0.02 0.02 0.03 0.02 0.01 0.01 0.01 0.02 0.05 0.08 0.20 0.37 0.50 0.34 0.14 0.05 0.05 0.15 0.22 0.25 0.25 0.19 0.13 0.08 0.06 0.06 0.04 0.04 0.05 0.07 0.09 0.13 0.17 0.21 0.17 0.15 0.20 0.17 0.17 0.21 0.22
0.01 0.01 0.01 0.02 0.03 0.03 0.02 0.01 0.01 0.02 0.03 0.06 0.15 0.28 0.37 0.43 0.30 0.13 0.06 0.04 0.05 0.08 0.09 0.10 0.10 0.08 0.06 0.04 0.03 0.03 0.02 0.02 0.02 0.03 0.05 0.09 0.15 0.15 0.14 0.16 0.17 0.16 0.22 0.23
0.00 0.00 0.00 0.01 0.02 0.02 0.02 0.01 0.01 0.02 0.04 0.06 0.10 0.31 0.46 0.44 0.32 0.13 0.08 0.06 0.06 0.08 0.07 0.07 0.06 0.06 0.05 0.04 0.04 0.04 0.03 0.02 0.02 0.02 0.03 0.05 0.11 0.15 0.15 0.14 0.17 0.18 0.18 0.18
0.00 0.00 0.00 0.00 0.01 0.03 0.02 0.02 0.02 0.02 0.03 0.05 0.06 0.17 0.23 0.20 0.13 0.09 0.05 0.03 0.04 0.04 0.05 0.04 0.04 0.04 0.04 0.03 0.03 0.03 0.03 0.03 0.02 0.02 0.02 0.02 0.05 0.09 0.14 0.17 0.18 0.19 0.18 0.17
0.00 0.00 0.00 0.00 0.02 0.03 0.02 0.02 0.02 0.03 0.03 0.03 0.05 0.14 0.10 0.10 0.09 0.06 0.02 0.01 0.01 0.01 0.01 0.01 0.02 0.02 0.02 0.03 0.03 0.04 0.04 0.03 0.03 0.02 0.02 0.01 0.01 0.03 0.06 0.10 0.14 0.16 0.15 0.14
0.00 0.00 0.00 0.01 0.02 0.03 0.02 0.02 0.03 0.03 0.04 0.03 0.10 0.19 0.10 0.05 0.04 0.02 0.01 0.00 0.00 0.00 0.00 0.01 0.01 0.02 0.03 0.03 0.03 0.02 0.02 0.02 0.01 0.01 0.01 0.00 0.00 0.00 0.01 0.04 0.07 0.10 0.12 0.13
0.00 0.00 0.00 0.00 0.00 0.01 0.02 0.04 0.05 0.05 0.02 0.01 0.05 0.16 0.07 0.02 0.01 0.00 0.00 0.00 0.00 0.00 0.00 0.00 0.01 0.01 0.01 0.01 0.01 0.00 0.00 0.00 0.00 0.01 0.01 0.01 0.01 0.01 0.01 0.02 0.03 0.05 0.08 0.11
0.00 0.00 0.00 0.00 0.00 0.01 0.02 0.05 0.04 0.02 0.01 0.03 0.04 0.07 0.03 0.01 0.01 0.00 0.00 0.00 0.00 0.00 0.01 0.01 0.01 0.01 0.01 0.02 0.02 0.02 0.03 0.03 0.03 0.04 0.05 0.05 0.05 0.05 0.05 0.04 0.04 0.05 0.07 0.09
0.00 0.00 0.00 0.00 0.00 0.01 0.02 0.05 0.03 0.01 0.00 0.00 0.00 0.01 0.00 0.00 0.01 0.01 0.02 0.03 0.04 0.04 0.04 0.04 0.04 0.03 0.02 0.02 0.02 0.02 0.02 0.02 0.03 0.04 0.04 0.04 0.04 0.04 0.04 0.04 0.04 0.05 0.07 0.11
0.00 0.00 0.00 0.00 0.00 0.01 0.06 0.04 0.01 0.00 0.00 0.00 0.00 0.00 0.00 0.01 0.01 0.02 0.05 0.06 0.05 0.03 0.02 0.01 0.01 0.00 0.00 0.00 0.00 0.00 0.00 0.00 0.01 0.01 0.02 0.02 0.03 0.04 0.05 0.06 0.06 0.07 0.10 0.13
0.00 0.00 0.00 0.00 0.00 0.04 0.07 0.01 0.00 0.00 0.00 0.00 0.00 0.00 0.00 0.00 0.01 0.01 0.01 0.01 0.00 0.00 0.00 0.00 0.00 0.00 0.00 0.00 0.00 0.00 0.00 0.00 0.00 0.01 0.02 0.03 0.04 0.06 0.07 0.10 0.12 0.14 0.15 0.17
0.00 0.00 0.00 0.00 0.00 0.02 0.02 0.00 0.00 0.00 0.00 0.00 0.00 0.00 0.00 0.00 0.00 0.00 0.00 0.00 0.00 0.00 0.00 0.00 0.00 0.00 0.00 0.00 0.00 0.00 0.00 0.00 0.01 0.02 0.03 0.05 0.07 0.09 0.11 0.13 0.17 0.22 0.24 0.23
0.00 0.00 0.00 0.00 0.00 0.02 0.02 0.00 0.00 0.00 0.02 0.00 0.00 0.00 0.00 0.00 0.00 0.00 0.00 0.00 0.00 0.00 0.00 0.00 0.00 0.00 0.00 0.00 0.00 0.01 0.01 0.02 0.04 0.05 0.07 0.08 0.11 0.16 0.18 0.19 0.22 0.26 0.30 0.30
0.00 0.00 0.00 0.00 0.00 0.00 0.00 0.00 0.00 0.00 0.00 0.00 0.00 0.00 0.00 0.00 0.00 0.00 0.00 0.00 0.00 0.00 0.00 0.00 0.00 0.00 0.00 0.01 0.02 0.04 0.06 0.07 0.08 0.09 0.10 0.11 0.14 0.19 0.21 0.25 0.28 0.30 0.32 0.33
0.00 0.00 0.00 0.00 0.00 0.00 0.00 0.00 0.00 0.00 0.00 0.00 0.00 0.00 0.00 0.00 0.00 0.00 0.00 0.00 0.00 0.00 0.00 0.00 0.00 0.00 0.01 0.02 0.05 0.09 0.10 0.10 0.11 0.12 0.12 0.13 0.14 0.15 0.17 0.24 0.28 0.31 0.36 0.38
0.00 0.00 0.00 0.00 0.00 0.00 0.00 0.00 0.00 0.00 0.00 0.00 0.00 0.00 0.00 0.00 0.00 0.00 0.00 0.00 0.00 0.00 0.00 0.00 0.00 0.01 0.02 0.04 0.08 0.13 0.11 0.11 0.13 0.14 0.14 0.15 0.16 0.18 0.21 0.25 0.26 0.27 0.30 0.31
0.00 0.00 0.00 0.00 0.00 0.00 0.00 0.00 0.00 0.00 0.00 0.00 0.00 0.00 0.00 0.00 0.00 0.00 0.00 0.00 0.00 0.00 0.00 0.00 0.01 0.04 0.05 0.07 0.08 0.10 0.11 0.15 0.18 0.18 0.18 0.18 0.20 0.21 0.22 0.27 0.28 0.28 0.28 0.28
0.00 0.00 0.00 0.00 0.00 0.00 0.00 0.00 0.00 0.00 0.00 0.00 0.00 0.00 0.00 0.00 0.00 0.00 0.00 0.00 0.00 0.00 0.01 0.02 0.05 0.09 0.10 0.09 0.08 0.09 0.13 0.20 0.23 0.22 0.21 0.22 0.23 0.24 0.23 0.25 0.27 0.26 0.27 0.26
0.00 0.00 0.00 0.00 0.00 0.00 0.00 0.00 0.00 0.00 0.00 0.00 0.00 0.00 0.00 0.00 0.00 0.00 0.00 0.00 0.00 0.01 0.04 0.08 0.12 0.14 0.14 0.12 0.12 0.12 0.17 0.26 0.30 0.29 0.25 0.25 0.24 0.24 0.24 0.24 0.24 0.19 0.17 0.15